sat.trackr.live / text

‹ back to catalog

STARLINK-35655

NORAD 66470 · 2025-262Q

PAYLOAD ACTIVE UNKNOWN

§ Identity

Operator
Country
US
Launch date
2025-11-15
Launch site
AFETR
Launch vehicle
Mass (kg)
RCS (m²)

Purposes: comms

External: N2YO · Heavens-Above · Gunter

§ Orbital elements

Epoch: 2026-09-20T08:01:44.181696Z

Period
94.27 min
Inclination
43.0051°
Eccentricity
0.0001571
Mean motion
15.27581942 rev/d
Perigee alt
482.0 km
Apogee alt
484.1 km
Semi-major
6,861.2 km
B*
6.9673e-4
RAAN
277.0148°
Arg perigee
276.9476°
Mean anomaly
83.1197°
Rev number
4,867

§ Raw data

STARLINK-356551 66470U 25262Q   26263.33453914  .00018961  00000+0  69673-3 0  99992 66470  43.0051 277.0148 0001571 276.9476  83.1197 15.27581942 48670

JSON: /api/v1/satellites/66470 · /tle

For live sub-satellite position, see the globe view (requires WebGL).

§ Visibility from observer

Set your observer location to see the next 7 days of passes ≥ 10°. The values pass through the URL so the page stays shareable.

No JS? Fill the form by hand. The geolocation button needs JavaScript.